ISR563 LLBG-LGAV

Flight info

Callsign ISR563
Flight time 1h 50m
Altitude 36000
Route SUVAS N128 OTHON DCT USINI UL995 VARIX
Aircraft A320/M-SDE2FGIJ1LORVWY/SB1

Departure

Time 2026-05-05 07:59
Airport Ben Gurion International Airport (LLBG)

Arrival

Time 2026-05-05 09:49
Airport Athens Eleftherios Venizelos International Airport (LGAV)
Time Latitude Longitude Altitude Speed Heading
2026-05-05 07:24 32.00424 34.87554 120 ft 0 kts 227°
2026-05-05 07:43 32.00425 34.87554 120 ft 0 kts 227°
2026-05-05 07:50 32.00430 34.87562 120 ft 4 kts 221°
2026-05-05 07:50 32.00453 34.87576 118 ft 4 kts 190°
2026-05-05 07:50 32.00474 34.87579 120 ft 4 kts 187°
2026-05-05 07:51 32.00500 34.87587 120 ft 4 kts 209°
2026-05-05 07:51 32.00521 34.87606 120 ft 4 kts 234°
2026-05-05 07:51 32.00534 34.87632 117 ft 4 kts 254°
2026-05-05 07:51 32.00535 34.87662 120 ft 4 kts 299°
2026-05-05 07:52 32.00518 34.87684 120 ft 4 kts 330°
2026-05-05 07:52 32.00494 34.87696 120 ft 2 kts 347°
2026-05-05 07:52 32.00492 34.87696 120 ft 0 kts 347°
2026-05-05 07:54 32.00496 34.87695 116 ft 4 kts 347°
2026-05-05 07:54 32.00556 34.87683 117 ft 11 kts
2026-05-05 07:54 32.00628 34.87733 117 ft 13 kts 49°
2026-05-05 07:54 32.00600 34.87835 117 ft 15 kts 122°
2026-05-05 07:55 32.00618 34.87940 120 ft 16 kts 28°
2026-05-05 07:55 32.00722 34.88014 119 ft 19 kts 32°
2026-05-05 07:55 32.00847 34.88106 118 ft 24 kts 31°
2026-05-05 07:55 32.00998 34.88216 119 ft 27 kts 31°
2026-05-05 07:56 32.01158 34.88331 118 ft 27 kts 31°
2026-05-05 07:56 32.01308 34.88458 119 ft 28 kts 44°
2026-05-05 07:56 32.01425 34.88628 120 ft 26 kts 58°
2026-05-05 07:56 32.01492 34.88830 117 ft 27 kts 76°
2026-05-05 07:57 32.01520 34.89000 116 ft 21 kts 79°
2026-05-05 07:57 32.01556 34.89149 118 ft 16 kts 45°
2026-05-05 07:57 32.01667 34.89146 115 ft 17 kts 350°
2026-05-05 07:57 32.01742 34.89062 118 ft 17 kts 256°
2026-05-05 07:58 32.01738 34.89037 120 ft 1 kts 260°
2026-05-05 07:58 32.01718 34.88907 119 ft 45 kts 260°
2026-05-05 07:58 32.01623 34.88286 121 ft 106 kts 260°
2026-05-05 07:58 32.01461 34.87235 120 ft 152 kts 259°
2026-05-05 07:59 32.01256 34.85907 399 ft 169 kts 260°
2026-05-05 07:59 32.01042 34.84547 1017 ft 169 kts 258°
2026-05-05 07:59 32.00779 34.83200 1736 ft 168 kts 256°
2026-05-05 07:59 32.00485 34.81829 2236 ft 181 kts 256°
2026-05-05 08:00 32.00155 34.80301 2496 ft 204 kts 256°
2026-05-05 08:00 31.99784 34.78585 2864 ft 228 kts 256°
2026-05-05 08:00 31.99380 34.76691 3405 ft 246 kts 256°
2026-05-05 08:00 31.99265 34.74672 4204 ft 253 kts 279°
2026-05-05 08:01 31.99405 34.74017 4492 ft 255 kts 287°
2026-05-05 08:01 31.99883 34.72562 5134 ft 256 kts 290°
2026-05-05 08:01 32.00478 34.70582 6005 ft 258 kts 284°
2026-05-05 08:01 32.00981 34.68544 6858 ft 260 kts 283°
2026-05-05 08:02 32.01464 34.66477 7700 ft 263 kts 283°
2026-05-05 08:02 32.01942 34.64383 8501 ft 266 kts 283°
2026-05-05 08:02 32.02427 34.62261 9249 ft 270 kts 283°
2026-05-05 08:02 32.02924 34.60111 10016 ft 273 kts 283°
2026-05-05 08:03 32.03426 34.57924 10528 ft 286 kts 283°
2026-05-05 08:03 32.03964 34.55575 10763 ft 306 kts 284°
2026-05-05 08:03 32.04527 34.53129 11306 ft 313 kts 284°
2026-05-05 08:03 32.05103 34.50642 11997 ft 315 kts 284°
2026-05-05 08:04 32.05685 34.48146 12713 ft 317 kts 284°
2026-05-05 08:04 32.06273 34.45635 13402 ft 319 kts 284°
2026-05-05 08:04 32.06863 34.43109 14105 ft 320 kts 284°
2026-05-05 08:04 32.07455 34.40568 14758 ft 322 kts 284°
2026-05-05 08:05 32.08052 34.38009 15398 ft 325 kts 284°
2026-05-05 08:05 32.08650 34.35433 16013 ft 327 kts 283°
2026-05-05 08:05 32.09248 34.32841 16609 ft 329 kts 283°
2026-05-05 08:05 32.09840 34.30267 17197 ft 331 kts 283°
2026-05-05 08:06 32.10441 34.27640 17786 ft 333 kts 283°
2026-05-05 08:06 32.11048 34.24997 18368 ft 335 kts 283°
2026-05-05 08:06 32.11660 34.22337 18933 ft 338 kts 283°
2026-05-05 08:06 32.12276 34.19653 19500 ft 340 kts 282°
2026-05-05 08:07 32.12896 34.16948 20067 ft 343 kts 282°
2026-05-05 08:07 32.13520 34.14220 20621 ft 346 kts 282°
2026-05-05 08:07 32.14150 34.11478 21156 ft 348 kts 282°
2026-05-05 08:07 32.14785 34.08710 21673 ft 350 kts 282°
2026-05-05 08:08 32.15420 34.05926 22174 ft 353 kts 282°
2026-05-05 08:08 32.16060 34.03113 22664 ft 356 kts 282°
2026-05-05 08:08 32.16774 34.00306 23134 ft 360 kts 288°
2026-05-05 08:08 32.17918 33.97641 23590 ft 368 kts 298°
2026-05-05 08:09 32.19408 33.95153 24034 ft 373 kts 300°
2026-05-05 08:09 32.20924 33.92659 24481 ft 375 kts 300°
2026-05-05 08:09 32.22441 33.90148 24928 ft 376 kts 300°
2026-05-05 08:09 32.23961 33.87623 25361 ft 378 kts 300°
2026-05-05 08:10 32.25488 33.85086 25793 ft 379 kts 299°
2026-05-05 08:10 32.27016 33.82541 26204 ft 381 kts 299°
2026-05-05 08:10 32.28554 33.79980 26612 ft 382 kts 299°
2026-05-05 08:10 32.30097 33.77415 27016 ft 383 kts 299°
2026-05-05 08:11 32.31644 33.74845 27400 ft 384 kts 299°
2026-05-05 08:11 32.33196 33.72264 27769 ft 385 kts 299°
2026-05-05 08:11 32.34719 33.69725 28111 ft 387 kts 298°
2026-05-05 08:11 32.36276 33.67122 28470 ft 388 kts 298°
2026-05-05 08:12 32.37842 33.64504 28833 ft 390 kts 298°
2026-05-05 08:12 32.39412 33.61881 29187 ft 391 kts 298°
2026-05-05 08:12 32.40988 33.59250 29514 ft 393 kts 298°
2026-05-05 08:12 32.42568 33.56606 29832 ft 394 kts 298°
2026-05-05 08:13 32.44151 33.53953 30169 ft 395 kts 298°
2026-05-05 08:13 32.45740 33.51294 30522 ft 395 kts 298°
2026-05-05 08:13 32.47326 33.48638 30913 ft 395 kts 298°
2026-05-05 08:13 32.48908 33.45983 31283 ft 395 kts 298°
2026-05-05 08:14 32.50490 33.43323 31627 ft 395 kts 298°
2026-05-05 08:14 32.52073 33.40659 31979 ft 396 kts 298°
2026-05-05 08:14 32.53660 33.37989 32332 ft 396 kts 298°
2026-05-05 08:14 32.55247 33.35319 32702 ft 396 kts 298°
2026-05-05 08:15 32.56832 33.32650 33054 ft 396 kts 299°
2026-05-05 08:15 32.58419 33.29977 33402 ft 396 kts 298°
2026-05-05 08:15 32.60003 33.27306 33749 ft 396 kts 299°
2026-05-05 08:15 32.61587 33.24634 34078 ft 396 kts 299°
2026-05-05 08:16 32.63170 33.21961 34410 ft 396 kts 299°
2026-05-05 08:16 32.64753 33.19292 34742 ft 395 kts 299°
2026-05-05 08:16 32.66331 33.16628 35053 ft 394 kts 298°
2026-05-05 08:16 32.67901 33.13967 35339 ft 394 kts 298°
2026-05-05 08:17 32.69470 33.11308 35638 ft 393 kts 298°
2026-05-05 08:17 32.71039 33.08649 35909 ft 393 kts 298°
2026-05-05 08:17 32.72588 33.06022 36014 ft 394 kts 298°
2026-05-05 08:17 32.74166 33.03347 36037 ft 396 kts 298°
2026-05-05 08:18 32.77322 32.97985 36036 ft 396 kts 298°
2026-05-05 08:18 32.80477 32.92610 36019 ft 396 kts 298°
2026-05-05 08:19 32.83629 32.87238 36017 ft 396 kts 299°
2026-05-05 08:19 32.86784 32.81861 36020 ft 396 kts 299°
2026-05-05 08:20 32.89908 32.76520 36023 ft 396 kts 298°
2026-05-05 08:20 32.93055 32.71129 36022 ft 397 kts 299°
2026-05-05 08:21 32.96206 32.65732 36022 ft 397 kts 299°
2026-05-05 08:21 32.99362 32.60322 36023 ft 398 kts 299°
2026-05-05 08:22 33.02515 32.54900 36025 ft 398 kts 299°
2026-05-05 08:22 33.05661 32.49477 36021 ft 398 kts 299°
2026-05-05 08:23 33.08806 32.44047 36021 ft 398 kts 299°
2026-05-05 08:23 33.11955 32.38603 36024 ft 398 kts 299°
2026-05-05 08:24 33.15105 32.33164 36031 ft 399 kts 300°
2026-05-05 08:24 33.18260 32.27719 36029 ft 399 kts 300°
2026-05-05 08:25 33.21408 32.22260 36032 ft 399 kts 300°
2026-05-05 08:25 33.24553 32.16797 36045 ft 399 kts 300°
2026-05-05 08:26 33.27700 32.11319 36041 ft 400 kts 300°
2026-05-05 08:26 33.30826 32.05866 36038 ft 401 kts 300°
2026-05-05 08:27 33.33985 32.00374 36043 ft 401 kts 300°
2026-05-05 08:27 33.37136 31.94869 36046 ft 401 kts 301°
2026-05-05 08:28 33.40278 31.89365 36043 ft 400 kts 301°
2026-05-05 08:28 33.43415 31.83861 36040 ft 400 kts 301°
2026-05-05 08:29 33.46024 31.79275 36038 ft 401 kts 301°
2026-05-05 08:30 33.50744 31.71008 36038 ft 401 kts 301°
2026-05-05 08:30 33.53881 31.65483 36038 ft 401 kts 301°
2026-05-05 08:31 33.57008 31.59957 36037 ft 401 kts 301°
2026-05-05 08:31 33.60143 31.54431 36037 ft 401 kts 301°
2026-05-05 08:32 33.63269 31.48892 36036 ft 401 kts 301°
2026-05-05 08:32 33.66399 31.43345 36038 ft 401 kts 301°
2026-05-05 08:33 33.69531 31.37804 36047 ft 401 kts 301°
2026-05-05 08:33 33.72662 31.32249 36052 ft 401 kts 301°
2026-05-05 08:34 33.75781 31.26700 36050 ft 400 kts 301°
2026-05-05 08:34 33.78881 31.21151 36042 ft 400 kts 301°
2026-05-05 08:35 33.81988 31.15611 36043 ft 399 kts 301°
2026-05-05 08:35 33.85089 31.10072 36042 ft 399 kts 301°
2026-05-05 08:36 33.88181 31.04532 36040 ft 398 kts 301°
2026-05-05 08:36 33.91265 30.98996 36035 ft 398 kts 301°
2026-05-05 08:37 33.94353 30.93456 36036 ft 398 kts 301°
2026-05-05 08:37 33.97434 30.87915 36033 ft 398 kts 301°
2026-05-05 08:38 34.00505 30.82374 36036 ft 398 kts 301°
2026-05-05 08:38 34.03574 30.76825 36030 ft 398 kts 302°
2026-05-05 08:39 34.06647 30.71268 36033 ft 398 kts 302°
2026-05-05 08:39 34.09725 30.65709 36036 ft 398 kts 302°
2026-05-05 08:40 34.12795 30.60147 36037 ft 398 kts 302°
2026-05-05 08:40 34.15866 30.54569 36045 ft 399 kts 302°
2026-05-05 08:41 34.18938 30.48997 36047 ft 398 kts 302°
2026-05-05 08:41 34.22002 30.43425 36047 ft 398 kts 302°
2026-05-05 08:42 34.25056 30.37850 36043 ft 397 kts 302°
2026-05-05 08:42 34.28104 30.32280 36039 ft 397 kts 302°
2026-05-05 08:43 34.31125 30.26745 36044 ft 396 kts 302°
2026-05-05 08:43 34.34169 30.21179 36041 ft 397 kts 302°
2026-05-05 08:44 34.37202 30.15606 36041 ft 396 kts 302°
2026-05-05 08:44 34.40231 30.10029 36041 ft 396 kts 302°
2026-05-05 08:45 34.43261 30.04454 36050 ft 396 kts 302°
2026-05-05 08:45 34.46353 29.98927 36038 ft 397 kts 305°
2026-05-05 08:46 34.49753 29.93656 36040 ft 397 kts 308°
2026-05-05 08:46 34.53245 29.88464 36051 ft 397 kts 308°
2026-05-05 08:47 34.56692 29.83223 36063 ft 397 kts 307°
2026-05-05 08:47 34.60089 29.77940 36061 ft 397 kts 307°
2026-05-05 08:48 34.63477 29.72653 36020 ft 396 kts 307°
2026-05-05 08:48 34.66855 29.67400 36006 ft 394 kts 307°
2026-05-05 08:49 34.70235 29.62144 36005 ft 395 kts 307°
2026-05-05 08:49 34.73610 29.56879 36007 ft 395 kts 307°
2026-05-05 08:50 34.76987 29.51610 36008 ft 395 kts 307°
2026-05-05 08:50 34.80363 29.46334 36010 ft 395 kts 307°
2026-05-05 08:51 34.83732 29.41050 36013 ft 395 kts 307°
2026-05-05 08:51 34.87077 29.35803 36013 ft 395 kts 307°
2026-05-05 08:52 34.90445 29.30515 36014 ft 395 kts 307°
2026-05-05 08:52 34.93808 29.25220 36014 ft 395 kts 307°
2026-05-05 08:53 34.97174 29.19928 36014 ft 395 kts 307°
2026-05-05 08:53 35.00541 29.14630 36015 ft 395 kts 307°
2026-05-05 08:54 35.03900 29.09327 36014 ft 395 kts 307°
2026-05-05 08:54 35.07218 29.04079 36017 ft 395 kts 307°
2026-05-05 08:55 35.10573 28.98760 36023 ft 396 kts 307°
2026-05-05 08:55 35.13931 28.93431 36028 ft 396 kts 307°
2026-05-05 08:56 35.17281 28.88104 36028 ft 395 kts 307°
2026-05-05 08:56 35.20607 28.82812 36030 ft 395 kts 307°
2026-05-05 08:57 35.23951 28.77479 36031 ft 395 kts 307°
2026-05-05 08:57 35.27296 28.72142 36032 ft 395 kts 307°
2026-05-05 08:58 35.30634 28.66806 36030 ft 395 kts 307°
2026-05-05 08:58 35.33970 28.61465 36029 ft 395 kts 307°
2026-05-05 08:59 35.37306 28.56111 36029 ft 396 kts 307°
2026-05-05 08:59 35.40639 28.50752 36032 ft 395 kts 307°
2026-05-05 09:00 35.43975 28.45389 36034 ft 396 kts 307°
2026-05-05 09:00 35.47312 28.40016 36043 ft 396 kts 307°
2026-05-05 09:01 35.50645 28.34632 36045 ft 396 kts 307°
2026-05-05 09:01 35.53981 28.29239 36051 ft 397 kts 307°
2026-05-05 09:02 35.57317 28.23845 36057 ft 397 kts 308°
2026-05-05 09:02 35.60654 28.18437 36062 ft 397 kts 308°
2026-05-05 09:03 35.63987 28.13019 36056 ft 397 kts 308°
2026-05-05 09:03 35.67316 28.07600 36057 ft 397 kts 308°
2026-05-05 09:04 35.70624 28.02218 36060 ft 397 kts 308°
2026-05-05 09:04 35.73972 27.96758 36065 ft 397 kts 308°
2026-05-05 09:05 35.77294 27.91315 36061 ft 398 kts 307°
2026-05-05 09:05 35.80569 27.85830 36062 ft 398 kts 307°
2026-05-05 09:06 35.83900 27.80386 36065 ft 398 kts 308°
2026-05-05 09:06 35.87212 27.74983 36071 ft 398 kts 307°
2026-05-05 09:07 35.90467 27.69466 36068 ft 397 kts 304°
2026-05-05 09:07 35.93627 27.63871 36070 ft 398 kts 304°
2026-05-05 09:08 35.96776 27.58264 36068 ft 397 kts 304°
2026-05-05 09:08 35.99942 27.52675 36066 ft 397 kts 304°
2026-05-05 09:09 36.03115 27.47095 36066 ft 397 kts 305°
2026-05-05 09:09 36.06289 27.41502 36064 ft 398 kts 305°
2026-05-05 09:10 36.09463 27.35892 36069 ft 398 kts 305°
2026-05-05 09:10 36.12635 27.30274 36064 ft 399 kts 305°
2026-05-05 09:11 36.15807 27.24646 35885 ft 399 kts 305°
2026-05-05 09:11 36.17386 27.21837 35631 ft 396 kts 305°
2026-05-05 09:11 36.18955 27.19043 35324 ft 394 kts 305°
2026-05-05 09:11 36.20516 27.16262 35025 ft 393 kts 305°
2026-05-05 09:12 36.22077 27.13478 34723 ft 394 kts 305°
2026-05-05 09:12 36.23642 27.10693 34423 ft 394 kts 305°
2026-05-05 09:12 36.25207 27.07908 34134 ft 394 kts 305°
2026-05-05 09:13 36.28342 27.02325 34073 ft 395 kts 305°
2026-05-05 09:13 36.31436 26.96778 34071 ft 395 kts 305°
2026-05-05 09:14 36.34562 26.91164 34072 ft 396 kts 305°
2026-05-05 09:14 36.37691 26.85549 34072 ft 396 kts 305°
2026-05-05 09:15 36.40820 26.79926 34075 ft 396 kts 305°
2026-05-05 09:15 36.43947 26.74299 34074 ft 396 kts 305°
2026-05-05 09:16 36.47075 26.68670 34073 ft 396 kts 305°
2026-05-05 09:16 36.49665 26.63980 34075 ft 396 kts 305°
2026-05-05 09:17 36.52785 26.58327 34079 ft 397 kts 305°
2026-05-05 09:17 36.55908 26.52665 34080 ft 397 kts 305°
2026-05-05 09:18 36.59026 26.47002 34083 ft 397 kts 305°
2026-05-05 09:18 36.62143 26.41330 34087 ft 397 kts 305°
2026-05-05 09:19 36.65253 26.35659 34085 ft 396 kts 305°
2026-05-05 09:19 36.68363 26.29986 34086 ft 397 kts 305°
2026-05-05 09:20 36.71471 26.24309 34096 ft 397 kts 305°
2026-05-05 09:20 36.74554 26.18662 34098 ft 397 kts 305°
2026-05-05 09:21 36.77679 26.12932 34099 ft 397 kts 305°
2026-05-05 09:21 36.80757 26.07274 34103 ft 397 kts 305°
2026-05-05 09:22 36.83877 26.01538 34104 ft 397 kts 305°
2026-05-05 09:22 36.86980 25.95822 34108 ft 397 kts 305°
2026-05-05 09:23 36.90047 25.90148 34112 ft 397 kts 305°
2026-05-05 09:23 36.93138 25.84443 33865 ft 396 kts 305°
2026-05-05 09:23 36.94679 25.81596 33362 ft 394 kts 305°
2026-05-05 09:24 36.96206 25.78769 32860 ft 392 kts 305°
2026-05-05 09:24 36.97722 25.75954 32353 ft 389 kts 305°
2026-05-05 09:24 36.99228 25.73153 31862 ft 387 kts 304°
2026-05-05 09:24 37.00724 25.70368 31356 ft 385 kts 304°
2026-05-05 09:25 37.02212 25.67599 30855 ft 383 kts 304°
2026-05-05 09:25 37.03695 25.64840 30352 ft 381 kts 304°
2026-05-05 09:25 37.05170 25.62092 29852 ft 380 kts 304°
2026-05-05 09:25 37.06640 25.59355 29352 ft 378 kts 304°
2026-05-05 09:26 37.08108 25.56621 28851 ft 377 kts 304°
2026-05-05 09:26 37.09568 25.53896 28349 ft 376 kts 304°
2026-05-05 09:26 37.11023 25.51177 27853 ft 375 kts 304°
2026-05-05 09:26 37.12475 25.48462 27347 ft 374 kts 304°
2026-05-05 09:27 37.13922 25.45753 26847 ft 374 kts 304°
2026-05-05 09:27 37.15370 25.43045 26346 ft 373 kts 304°
2026-05-05 09:27 37.16812 25.40343 25845 ft 373 kts 304°
2026-05-05 09:27 37.18252 25.37639 25337 ft 373 kts 304°
2026-05-05 09:28 37.19696 25.34936 24838 ft 373 kts 304°
2026-05-05 09:28 37.21151 25.32247 24338 ft 373 kts 304°
2026-05-05 09:28 37.22579 25.29609 23849 ft 373 kts 304°
2026-05-05 09:28 37.24038 25.26919 23348 ft 373 kts 304°
2026-05-05 09:29 37.25494 25.24229 22848 ft 372 kts 304°
2026-05-05 09:29 37.26947 25.21540 22348 ft 372 kts 304°
2026-05-05 09:29 37.28396 25.18854 21846 ft 371 kts 304°
2026-05-05 09:29 37.29836 25.16178 21345 ft 367 kts 304°
2026-05-05 09:30 37.31242 25.13555 20840 ft 360 kts 304°
2026-05-05 09:30 37.32635 25.10951 20340 ft 358 kts 304°
2026-05-05 09:30 37.34005 25.08378 20096 ft 349 kts 304°
2026-05-05 09:30 37.35320 25.05902 20092 ft 332 kts 304°
2026-05-05 09:31 37.36581 25.03526 20110 ft 324 kts 304°
2026-05-05 09:31 37.37828 25.01174 20109 ft 322 kts 304°
2026-05-05 09:31 37.39070 24.98832 20104 ft 322 kts 304°
2026-05-05 09:31 37.40295 24.96520 20107 ft 322 kts 304°
2026-05-05 09:32 37.41534 24.94177 20110 ft 322 kts 304°
2026-05-05 09:32 37.42771 24.91834 20113 ft 322 kts 304°
2026-05-05 09:32 37.44012 24.89487 20033 ft 322 kts 304°
2026-05-05 09:32 37.45246 24.87150 19775 ft 320 kts 304°
2026-05-05 09:33 37.46467 24.84815 19528 ft 319 kts 302°
2026-05-05 09:33 37.47249 24.82219 19278 ft 320 kts 283°
2026-05-05 09:33 37.47595 24.79449 19027 ft 320 kts 280°
2026-05-05 09:33 37.47900 24.76675 18775 ft 319 kts 281°
2026-05-05 09:34 37.48203 24.73906 18337 ft 319 kts 280°
2026-05-05 09:34 37.48503 24.71130 17837 ft 321 kts 280°
2026-05-05 09:34 37.48802 24.68344 17337 ft 322 kts 280°
2026-05-05 09:34 37.49101 24.65549 16835 ft 323 kts 280°
2026-05-05 09:35 37.49399 24.62746 16333 ft 323 kts 280°
2026-05-05 09:35 37.49991 24.57138 15246 ft 320 kts 280°
2026-05-05 09:35 37.50277 24.54391 14616 ft 313 kts 280°
2026-05-05 09:36 37.50554 24.51695 13994 ft 308 kts 280°
2026-05-05 09:36 37.50822 24.49045 13374 ft 303 kts 280°
2026-05-05 09:36 37.51080 24.46431 12746 ft 299 kts 280°
2026-05-05 09:36 37.51334 24.43848 12121 ft 296 kts 280°
2026-05-05 09:37 37.51669 24.41304 11506 ft 294 kts 290°
2026-05-05 09:37 37.52385 24.38873 10894 ft 300 kts 295°
2026-05-05 09:37 37.53183 24.36416 10299 ft 306 kts 295°
2026-05-05 09:37 37.53978 24.33970 10115 ft 297 kts 295°
2026-05-05 09:38 37.54735 24.31616 10105 ft 284 kts 295°
2026-05-05 09:38 37.55470 24.29314 10107 ft 283 kts 295°
2026-05-05 09:38 37.56203 24.27017 10107 ft 282 kts 295°
2026-05-05 09:38 37.56944 24.24701 9744 ft 287 kts 295°
2026-05-05 09:39 37.57691 24.22360 9285 ft 289 kts 295°
2026-05-05 09:39 37.58438 24.20016 8792 ft 292 kts 295°
2026-05-05 09:39 37.59201 24.17607 8230 ft 294 kts 295°
2026-05-05 09:39 37.59954 24.15242 7673 ft 287 kts 295°
2026-05-05 09:40 37.60691 24.12941 7135 ft 280 kts 295°
2026-05-05 09:40 37.61417 24.10692 6592 ft 275 kts 295°
2026-05-05 09:40 37.62141 24.08477 6040 ft 271 kts 295°
2026-05-05 09:40 37.62852 24.06324 5497 ft 268 kts 295°
2026-05-05 09:41 37.63574 24.04169 4956 ft 265 kts 298°
2026-05-05 09:41 37.64487 24.02180 4427 ft 261 kts 304°
2026-05-05 09:41 37.65470 24.00275 4016 ft 255 kts 305°
2026-05-05 09:41 37.66465 23.98390 4013 ft 261 kts 305°
2026-05-05 09:42 37.67473 23.96493 4014 ft 260 kts 305°
2026-05-05 09:42 37.68484 23.94599 3968 ft 262 kts 306°
2026-05-05 09:42 37.69496 23.92700 3782 ft 259 kts 305°
2026-05-05 09:42 37.70502 23.90817 3605 ft 257 kts 305°
2026-05-05 09:43 37.71486 23.88974 3436 ft 246 kts 305°
2026-05-05 09:43 37.72391 23.87231 3273 ft 229 kts 302°
2026-05-05 09:43 37.73155 23.85554 3116 ft 211 kts 300°
2026-05-05 09:43 37.73835 23.83999 3023 ft 196 kts 300°
2026-05-05 09:44 37.74474 23.82485 2999 ft 194 kts 299°
2026-05-05 09:44 37.75109 23.80976 3008 ft 195 kts 299°
2026-05-05 09:44 37.75753 23.79470 3009 ft 196 kts 304°
2026-05-05 09:44 37.76765 23.78403 2981 ft 192 kts 343°
2026-05-05 09:45 37.78075 23.78498 3004 ft 195 kts 21°
2026-05-05 09:45 37.79193 23.79478 3013 ft 198 kts 38°
2026-05-05 09:45 37.80258 23.80580 3025 ft 196 kts 36°
2026-05-05 09:45 37.81298 23.81590 2926 ft 185 kts 35°
2026-05-05 09:46 37.82324 23.82566 2704 ft 186 kts 35°
2026-05-05 09:46 37.83366 23.83553 2449 ft 188 kts 36°
2026-05-05 09:46 37.84380 23.84515 2217 ft 176 kts 37°
2026-05-05 09:46 37.85302 23.85387 2006 ft 158 kts 37°
2026-05-05 09:47 37.86159 23.86199 1799 ft 151 kts 39°
2026-05-05 09:47 37.86974 23.86976 1593 ft 143 kts 35°
2026-05-05 09:47 37.87764 23.87716 1406 ft 140 kts 35°
2026-05-05 09:47 37.88543 23.88453 1251 ft 140 kts 35°
2026-05-05 09:48 37.89319 23.89186 1045 ft 139 kts 36°
2026-05-05 09:48 37.90087 23.89926 888 ft 139 kts 37°
2026-05-05 09:48 37.90866 23.90661 686 ft 140 kts 34°
2026-05-05 09:48 37.91647 23.91411 519 ft 142 kts 35°
2026-05-05 09:49 37.92429 23.92155 327 ft 138 kts 36°
2026-05-05 09:49 37.93119 23.92808 291 ft 107 kts 36°
2026-05-05 09:49 37.93573 23.93245 290 ft 57 kts 36°
2026-05-05 09:49 37.93770 23.93426 291 ft 28 kts 36°
2026-05-05 09:50 37.93892 23.93599 293 ft 19 kts 58°
2026-05-05 09:50 37.93950 23.93753 297 ft 19 kts 76°
2026-05-05 09:50 37.93873 23.93807 299 ft 16 kts 212°
2026-05-05 09:50 37.93776 23.93715 299 ft 19 kts 217°
2026-05-05 09:51 37.93662 23.93610 299 ft 22 kts 218°
2026-05-05 09:51 37.93538 23.93490 299 ft 21 kts 217°
2026-05-05 09:51 37.93427 23.93445 303 ft 17 kts 142°
2026-05-05 09:51 37.93356 23.93563 300 ft 18 kts 127°
2026-05-05 09:52 37.93278 23.93697 301 ft 20 kts 127°
2026-05-05 09:52 37.93188 23.93846 301 ft 23 kts 127°
2026-05-05 09:52 37.93100 23.93991 301 ft 17 kts 131°
2026-05-05 09:52 37.93011 23.93974 301 ft 15 kts 217°
2026-05-05 09:53 37.92918 23.93884 301 ft 18 kts 217°
2026-05-05 09:53 37.92827 23.93848 301 ft 11 kts 153°
2026-05-05 09:53 37.92782 23.93914 301 ft 2 kts 128°
2026-05-05 09:53 37.92777 23.93923 301 ft 1 kts 128°
2026-05-05 09:54 37.92768 23.93939 301 ft 3 kts 123°
2026-05-05 09:54 37.92751 23.93976 301 ft 6 kts 110°
2026-05-05 09:54 37.92773 23.94021 301 ft 8 kts 27°
2026-05-05 09:54 37.92801 23.94045 301 ft 1 kts 36°
2026-05-05 09:55 37.92804 23.94048 301 ft 0 kts 36°